{"data":{"norad_id":56132,"epoch":"2026-05-25T04:32:52.410336Z","epoch_age_seconds":62222,"freshness":"FRESH","line1":"1 56132U 23046AS  26145.18949549  .00002833  00000+0  11246-3 0  9991","line2":"2 56132  43.0054  74.6289 0001392 296.9480  63.1229 15.27568139173904","mean_motion":15.27568139,"eccentricity":0.0001392,"inclination_deg":43.0054,"raan_deg":74.6289,"arg_perigee_deg":296.948,"mean_anomaly_deg":63.1229,"bstar":0.00011246,"rev_number":17390,"period_min":94.26748065999,"perigee_km":482.12953032199,"apogee_km":484.03969441887,"semimajor_km":6861.2216123704,"source":"CELESTRAK","updated_at":"2026-05-25T13:38:17.960888Z"}}